Ashland, MO

3:03 AM CST on February 12, 2016 (GMT -0600)
Columbia Regional

Weather History for KCOU - October, 2011

Change the Weather History Date:

Wednesday, October 26, 2011

  Actual Average Record
Temperature  
Mean Temperature 57 °F 53 °F  
Max Temperature 69 °F 64 °F 87 °F (1891)
Min Temperature 45 °F 42 °F 24 °F (1942)
Degree Days  
Heating Degree Days 8 12  
Month to date heating degree days 162 231  
Since 1 July heating degree days 272 299  
Cooling Degree Days 0 0  
Month to date cooling degree days 34 15  
Year to date cooling degree days 1508 1242  
Growing Degree Days 7 (Base 50)    
Moisture  
Dew Point 46 °F    
Average Humidity 75    
Maximum Humidity 93    
Minimum Humidity 56    
Precipitation  
Precipitation 0.04 in 0.10 in 1.16 in (1919)
Month to date precipitation 0.96 2.84  
Year to date precipitation 31.67 36.46  
Snow  
Snow 0.00 in 0.00 in 1.20 in (1913)
Month to date snowfall 0.0 0.0  
Since 1 July snowfall 0.0 0.0  
Since 1 September snowfall 0.0 0.0  
Snow Depth 0.00 in    
Sea Level Pressure  
Sea Level Pressure 29.95 in    
Wind  
Wind Speed 9 mph (North)    
Max Wind Speed 18 mph    
Max Gust Speed 24 mph    
Visibility 9 miles    
Events Rain    
T = Trace of Precipitation, MM = Missing Value Source: NWS Daily Summary

Daily Weather History Graph

Daily Weather History Graph

Search for Another Location

Airport or City:

Trip Planner

Search our weather history database for the weather conditions in past years. The results will help you decide how hot, cold, wet, or windy it might be!

Date:

Astronomy

Oct. 26, 2011 Rise Set
Actual Time 7:29 AM CDT 6:15 PM CDT
Civil Twilight 7:01 AM CDT 6:43 PM CDT
Nautical Twilight 6:30 AM CDT 7:14 PM CDT
Astronomical Twilight 5:59 AM CDT 7:45 PM CDT
Moon 7:16 AM CDT (10/26) 5:59 PM CDT (10/26)
Length of Visible Light 11h 41m
Length of Day
10h 46m
Waning Crescent, 0% of the Moon is Illuminated
Oct 26
Waning Crescent
Oct 26
New
Nov 2
First Quarter
Nov 10
Full
Nov 18
Last Quarter

Hourly Weather History & Observations

Time (CDT) Temp. Windchill Dew Point Humidity Pressure Visibility Wind Dir Wind Speed Gust Speed Precip Events Conditions
12:54 AM 70.0 °F - 55.0 °F 59% 29.82 in 10.0 mi West 11.5 mph - N/A   Partly Cloudy
1:54 AM 64.0 °F - 48.9 °F 58% 29.83 in 10.0 mi WNW 8.1 mph - N/A   Clear
2:54 AM 60.1 °F - 48.0 °F 64% 29.84 in 10.0 mi NW 12.7 mph - N/A   Clear
3:54 AM 57.0 °F - 46.9 °F 69% 29.86 in 10.0 mi NW 10.4 mph - N/A   Clear
4:54 AM 54.0 °F - 46.0 °F 75% 29.88 in 10.0 mi NW 12.7 mph - N/A   Clear
5:54 AM 50.0 °F - 45.0 °F 83% 29.89 in 10.0 mi NNW 8.1 mph - N/A   Scattered Clouds
6:54 AM 48.9 °F - 44.1 °F 83% 29.91 in 10.0 mi North 10.4 mph - N/A   Clear
7:49 AM 48.2 °F - 44.6 °F 87% 29.94 in 10.0 mi North 8.1 mph - N/A   Mostly Cloudy
7:54 AM 48.9 °F - 44.1 °F 83% 29.92 in 10.0 mi North 11.5 mph - N/A   Mostly Cloudy
8:24 AM 48.2 °F - 44.6 °F 87% 29.96 in 8.0 mi North 11.5 mph - N/A   Overcast
8:54 AM 48.0 °F - 44.1 °F 86% 29.95 in 6.0 mi North 13.8 mph - N/A   Overcast
9:54 AM 48.0 °F - 45.0 °F 89% 29.98 in 5.0 mi NNW 16.1 mph - 0.01 in Rain Light Rain
10:45 AM 48.2 °F - 46.4 °F 93% 29.97 in 5.0 mi North 8.1 mph - 0.01 in   Overcast
10:54 AM 48.9 °F - 46.9 °F 93% 29.98 in 5.0 mi NNW 9.2 mph - 0.01 in   Overcast
11:11 AM 48.2 °F - 46.4 °F 93% 29.98 in 5.0 mi North 10.4 mph - N/A   Overcast
11:54 AM 50.0 °F - 46.9 °F 89% 29.96 in 7.0 mi NNE 5.8 mph - N/A   Overcast
12:54 PM 50.0 °F - 46.0 °F 86% 29.97 in 7.0 mi NNE 6.9 mph - N/A   Overcast
1:26 PM 50.0 °F - 46.4 °F 87% 29.96 in 9.0 mi North 9.2 mph - N/A   Overcast
1:37 PM 50.0 °F - 46.4 °F 87% 29.96 in 10.0 mi NNW 9.2 mph - N/A   Overcast
1:54 PM 50.0 °F - 46.4 °F 87% 29.96 in 9.0 mi NNW 11.5 mph - N/A Rain Light Rain
2:28 PM 48.2 °F - 46.4 °F 93% 29.95 in 8.0 mi North 10.4 mph - 0.00 in   Overcast
2:54 PM 48.9 °F - 46.0 °F 90% 29.96 in 6.0 mi NNW 10.4 mph - 0.01 in Rain Light Rain
3:54 PM 48.9 °F - 46.0 °F 90% 29.97 in 10.0 mi North 11.5 mph - 0.01 in   Overcast
4:54 PM 48.9 °F - 46.0 °F 90% 29.98 in 10.0 mi North 8.1 mph - N/A   Overcast
5:54 PM 48.0 °F - 45.0 °F 89% 29.98 in 10.0 mi North 8.1 mph - N/A   Overcast
6:08 PM 48.2 °F - 44.6 °F 87% 29.98 in 10.0 mi North 8.1 mph - N/A   Overcast
6:54 PM 48.2 °F - 44.6 °F 87% 29.98 in 10.0 mi North 11.5 mph - N/A   Overcast
7:54 PM 48.0 °F - 44.1 °F 86% 30.00 in 10.0 mi North 8.1 mph - N/A   Overcast
8:54 PM 48.0 °F - 44.1 °F 86% 30.00 in 10.0 mi North 8.1 mph - N/A   Overcast
9:54 PM 46.0 °F 43.1 °F 43.0 °F 89% 30.01 in 10.0 mi North 5.8 mph - N/A   Overcast
10:54 PM 44.6 °F 42.2 °F 42.8 °F 93% 30.00 in 10.0 mi North 4.6 mph - N/A   Mostly Cloudy
11:54 PM 46.4 °F 43.5 °F 42.8 °F 87% 30.01 in 10.0 mi NNW 5.8 mph - N/A   Overcast